This demonstration page uses our WeatherBlox Daily Observations layout. Learn more.

Hourly Observations for September 19, 2019

Temp ( °F °C ) Dew Point ( °F °C ) Humidity (%) Winds ( mph kmh ) Pressure ( in mb ) Visibility ( mi km ) Precip ( " mm )
12:15 am 00:15 Clear 63 17 55 13 77 77 S 6 9 30.27 1025 10 16.09344 0 0
12:35 am 00:35 Clear 59 15 54 12 82 82 Calm 30.3 1026 10 16.09344 0 0
12:55 am 00:55 Clear 59 15 54 12 82 82 Calm 30.3 1026 10 16.09344 0 0
1:15 am 01:15 Clear 61 16 55 13 83 83 SE 5 7 30.3 1026 10 16.09344 0 0
1:35 am 01:35 Clear 61 16 55 13 83 83 Calm 30.3 1026 10 16.09344 0 0
1:55 am 01:55 Clear 55 13 54 12 94 94 Calm 30.3 1026 10 16.09344 0 0
2:15 am 02:15 Mostly Cloudy 55 13 54 12 94 94 Calm 30.3 1026 10 16.09344 0 0
2:35 am 02:35 Cloudy 55 13 54 12 94 94 Calm 30.3 1026 10 16.09344 0 0
2:55 am 02:55 Partly Cloudy 54 12 54 12 100 100 Calm 30.33 1027 10 16.09344 0 0
3:15 am 03:15 Mostly Cloudy 54 12 54 12 100 100 NW 3 6 30.33 1027 10 16.09344 0 0
3:35 am 03:35 Cloudy 55 13 54 12 94 94 Calm 30.3 1026 10 16.09344 0 0
3:55 am 03:55 Cloudy 57 14 55 13 94 94 Calm 30.33 1027 10 16.09344 0 0
4:15 am 04:15 Cloudy 59 15 55 13 88 88 ENE 3 6 30.33 1027 10 16.09344 0 0
4:35 am 04:35 Cloudy 59 15 55 13 88 88 ENE 3 6 30.33 1027 10 16.09344 0 0
4:55 am 04:55 Cloudy 59 15 55 13 88 88 ENE 3 6 30.33 1027 10 16.09344 0 0
5:15 am 05:15 Cloudy 59 15 55 13 88 88 E 5 7 30.33 1027 10 16.09344 0 0
5:35 am 05:35 Cloudy 57 14 55 13 94 94 Calm 30.33 1027 10 16.09344 0 0
5:55 am 05:55 Partly Cloudy 55 13 54 12 94 94 Calm 30.33 1027 10 16.09344 0 0
6:15 am 06:15 Clear 55 13 54 12 94 94 Calm 30.33 1027 10 16.09344 0 0
6:35 am 06:35 Clear 55 13 54 12 94 94 Calm 30.33 1027 10 16.09344 0 0
6:55 am 06:55 Clear 54 12 54 12 100 100 Calm 30.36 1028 10 16.09344 0 0
7:15 am 07:15 Sunny 54 12 52 11 94 94 Calm 30.39 1029 10 16.09344 0 0
7:35 am 07:35 Sunny 55 13 54 12 94 94 Calm 30.33 1027 10 16.09344 0 0
7:55 am 07:55 Sunny 55 13 54 12 94 94 ENE 3 6 30.33 1027 10 16.09344 0 0
8:15 am 08:15 Sunny 57 14 54 12 88 88 Calm 30.36 1028 10 16.09344 0 0
8:35 am 08:35 Sunny 59 15 54 12 82 82 undefined N/A 30.36 1028 10 16.09344 0 0
8:55 am 08:55 Sunny 59 15 54 12 82 82 ENE 3 6 30.36 1028 10 16.09344 0 0
9:15 am 09:15 Sunny 61 16 52 11 72 72 ESE 3 6 30.36 1028 10 16.09344 0 0
9:35 am 09:35 Sunny 61 16 52 11 72 72 E 3 6 30.36 1028 10 16.09344 0 0
9:55 am 09:55 Partly Cloudy 63 17 50 10 64 64 E 5 7 30.39 1029 10 16.09344 0 0
10:15 am 10:15 Mostly Cloudy 63 17 50 10 64 64 SE 6 9 30.36 1028 10 16.09344 0 0
10:35 am 10:35 Mostly Cloudy 61 16 50 10 68 68 Calm 30.36 1028 10 16.09344 0 0
10:55 am 10:55 Partly Cloudy 64 18 50 10 60 60 ESE 5 7 30.36 1028 10 16.09344 0 0
11:15 am 11:15 Partly Cloudy 64 18 50 10 60 60 ESE 5 7 30.39 1029 10 16.09344 0 0
11:35 am 11:35 Partly Cloudy 64 18 50 10 60 60 Calm 30.36 1028 10 16.09344 0 0
11:55 am 11:55 Mostly Cloudy 63 17 50 10 64 64 NE 3 6 30.36 1028 10 16.09344 0 0
12:15 pm 12:15 Cloudy 66 19 52 11 60 60 ENE 3 6 30.36 1028 10 16.09344 0 0
12:35 pm 12:35 Mostly Cloudy 68 20 50 10 53 53 E 6 9 30.36 1028 10 16.09344 0 0
12:55 pm 12:55 Partly Cloudy 68 20 48 9 49 49 SSE 6 9 30.36 1028 10 16.09344 0 0
1:15 pm 13:15 Sunny 68 20 48 9 49 49 E 7 11 30.36 1028 10 16.09344 0 0
1:35 pm 13:35 Sunny 68 20 48 9 49 49 E 7 11 30.33 1027 10 16.09344 0 0
1:55 pm 13:55 Sunny 68 20 46 8 46 46 SSE 6 9 30.33 1027 10 16.09344 0 0
2:15 pm 14:15 Sunny 70 21 45 7 40 40 Calm 30.33 1027 10 16.09344 0 0
2:35 pm 14:35 Sunny 70 21 45 7 40 40 S 6 9 30.33 1027 10 16.09344 0 0
2:55 pm 14:55 Sunny 70 21 45 7 40 40 E 5 7 30.3 1026 10 16.09344 0 0
3:15 pm 15:15 Sunny 72 22 46 8 41 41 E 3 6 30.3 1026 10 16.09344 0 0
3:35 pm 15:35 Sunny 72 22 46 8 41 41 SE 5 7 30.3 1026 10 16.09344 0 0
3:55 pm 15:55 Sunny 72 22 46 8 41 41 SSE 5 7 30.3 1026 10 16.09344 0 0
4:15 pm 16:15 Sunny 72 22 46 8 41 41 ESE 7 11 30.3 1026 10 16.09344 0 0
4:35 pm 16:35 Sunny 73 23 46 8 38 38 SE 5 7 30.3 1026 10 16.09344 0 0
4:55 pm 16:55 Sunny 72 22 46 8 41 41 NNW 3 6 30.3 1026 10 16.09344 0 0
5:15 pm 17:15 Sunny 72 22 46 8 41 41 S 5 7 30.3 1026 10 16.09344 0 0
5:35 pm 17:35 Sunny 72 22 46 8 41 41 E 8 13 30.3 1026 10 16.09344 0 0
5:55 pm 17:55 Sunny 72 22 45 7 38 38 ESE 8 13 30.3 1026 10 16.09344 0 0
6:15 pm 18:15 Sunny 72 22 45 7 38 38 E 5 7 30.3 1026 10 16.09344 0 0
6:35 pm 18:35 Sunny 70 21 45 7 40 40 ENE 5 7 30.3 1026 10 16.09344 0 0
6:55 pm 18:55 Sunny 70 21 43 6 38 38 ENE 5 7 30.3 1026 10 16.09344 0 0
7:15 pm 19:15 Clear 68 20 43 6 40 40 ESE 3 6 30.3 1026 10 16.09344 0 0
7:35 pm 19:35 Clear 68 20 43 6 40 40 ESE 3 6 30.3 1026 10 16.09344 0 0
7:55 pm 19:55 Clear 68 20 43 6 40 40 SE 3 6 30.3 1026 10 16.09344 0 0
8:15 pm 20:15 Clear 64 18 43 6 46 46 SE 3 6 30.3 1026 10 16.09344 0 0
8:35 pm 20:35 Clear 64 18 45 7 49 49 ESE 3 6 30.3 1026 10 16.09344 0 0
8:55 pm 20:55 Clear 64 18 43 6 46 46 Calm 30.3 1026 10 16.09344 0 0
9:15 pm 21:15 Clear 63 17 43 6 49 49 SE 7 11 30.3 1026 10 16.09344 0 0
9:35 pm 21:35 Clear 63 17 43 6 49 49 SSE 7 11 30.3 1026 10 16.09344 0 0
9:55 pm 21:55 Clear 63 17 43 6 49 49 S 5 7 30.3 1026 10 16.09344 0 0
10:15 pm 22:15 Clear 57 14 45 7 63 63 S 3 6 30.3 1026 10 16.09344 0 0
10:35 pm 22:35 Clear 55 13 45 7 67 67 Calm 30.3 1026 10 16.09344 0 0
10:55 pm 22:55 Clear 54 12 46 8 77 77 Calm 30.33 1027 10 16.09344 0 0
11:15 pm 23:15 Clear 54 12 46 8 77 77 Calm 30.33 1027 10 16.09344 0 0
11:35 pm 23:35 Clear 52 11 46 8 82 82 Calm 30.33 1027 10 16.09344 0 0
11:55 pm 23:55 Clear 50 10 46 8 88 88 Calm 30.33 1027 10 16.09344 0 0

Powered by AerisWeather